Moline, IL

7:19 AM CDT on June 27, 2017 (GMT -0500)
Quad-City International

Weather History for KMLI - July, 2013

Change the Weather History Date:

Friday, July 26, 2013

  Actual Average Record
Temperature  
Mean Temperature 70 °F 75 °F  
Max Temperature 80 °F 85 °F 106 °F (1936)
Min Temperature 60 °F 65 °F 49 °F (1962)
Degree Days  
Heating Degree Days 0 0  
Month to date heating degree days 0 0  
Since 1 June heating degree days 27 19  
Since 1 July heating degree days 0 0  
Cooling Degree Days 5 10  
Month to date cooling degree days 250 276  
Year to date cooling degree days 543 566  
Since 1 June cooling degree days 453 490  
Growing Degree Days 22 (Base 50)    
Moisture  
Dew Point 62 °F    
Average Humidity 70    
Maximum Humidity 93    
Minimum Humidity 47    
Precipitation  
Precipitation 0.52 in 0.12 in 3.13 in (1966)
Month to date precipitation 1.88 3.68  
Year to date precipitation 31.17 22.03  
Snow  
Snow 0.00 in 0.00 in - ()
Month to date snowfall 0.0 0.0  
Since 1 June snowfall 0.0 0.0  
Since 1 July snowfall 0.0 0.0  
Snow Depth 0.00 in    
Sea Level Pressure  
Sea Level Pressure 29.96 in    
Wind  
Wind Speed 9 mph (WSW)    
Max Wind Speed 25 mph    
Max Gust Speed 32 mph    
Visibility 8 miles    
Events Rain , Thunderstorm    
T = Trace of Precipitation, MM = Missing Value Source: NWS Daily Summary

Daily Weather History Graph

Daily Weather History Graph

Search for Another Location

Airport or City:

Trip Planner

Search our weather history database for the weather conditions in past years. The results will help you decide how hot, cold, wet, or windy it might be!

Date:

Astronomy

Jul. 26, 2013 Rise Set
Actual Time 5:51 AM CDT 8:25 PM CDT
Civil Twilight 5:19 AM CDT 8:56 PM CDT
Nautical Twilight 4:39 AM CDT 9:36 PM CDT
Astronomical Twilight 3:55 AM CDT 10:20 PM CDT
Moon 10:34 PM CDT (7/26) 10:31 AM CDT (7/26)
Length of Visible Light 15h 37m
Length of Day
14h 33m
Waning Gibbous, 80% of the Moon is Illuminated
Jul 26
Waning Gibbous
Jul 29
Last Quarter
Aug 6
New
Aug 14
First Quarter
Aug 20
Full

Hourly Weather History & Observations

Time (CDT) Temp. Dew Point Humidity Pressure Visibility Wind Dir Wind Speed Gust Speed Precip Events Conditions
12:52 AM 68.0 °F 62.1 °F 81% 30.04 in 10.0 mi West 8.1 mph - 0.00 in   Overcast
1:52 AM 66.9 °F 64.9 °F 93% 30.03 in 3.0 mi West 8.1 mph - 0.11 in Rain Heavy Rain
2:24 AM 66.2 °F 64.4 °F 94% 30.03 in 8.0 mi West 5.8 mph - 0.04 in Rain , Thunderstorm Light Rain
2:39 AM 66.2 °F 64.4 °F 94% 30.02 in 3.0 mi WSW 3.5 mph - 0.06 in Rain Heavy Rain
2:44 AM 66.2 °F 64.4 °F 94% 30.02 in 1.8 mi South 4.6 mph - 0.10 in Rain Heavy Rain
2:52 AM 66.0 °F 64.0 °F 93% 30.00 in 3.0 mi SW 5.8 mph - 0.15 in Rain Rain
3:52 AM 66.0 °F 64.0 °F 93% 29.98 in 10.0 mi South 5.8 mph - 0.03 in Rain Light Rain
4:52 AM 66.0 °F 63.0 °F 90% 29.97 in 10.0 mi SSW 5.8 mph - 0.00 in Rain Light Rain
5:52 AM 64.9 °F 62.1 °F 90% 29.96 in 8.0 mi South 10.4 mph - 0.04 in Rain Light Rain
6:52 AM 64.9 °F 62.1 °F 90% 29.98 in 10.0 mi SSW 5.8 mph - 0.01 in   Mostly Cloudy
7:52 AM 66.0 °F 63.0 °F 90% 29.99 in 10.0 mi SSW 6.9 mph - 0.00 in   Overcast
8:52 AM 66.9 °F 64.0 °F 90% 29.98 in 10.0 mi SSW 8.1 mph - 0.00 in   Overcast
9:11 AM 66.2 °F 64.4 °F 94% 29.98 in 10.0 mi SSW 8.1 mph - 0.00 in   Overcast
9:52 AM 69.1 °F 64.9 °F 87% 29.97 in 10.0 mi SW 6.9 mph - 0.00 in   Overcast
10:52 AM 71.1 °F 64.9 °F 81% 29.96 in 10.0 mi SSW 15.0 mph - N/A   Overcast
11:02 AM 71.6 °F 64.4 °F 78% 29.97 in 10.0 mi SW 13.8 mph 19.6 mph N/A   Overcast
11:52 AM 71.1 °F 64.9 °F 81% 29.96 in 10.0 mi SSW 8.1 mph - N/A   Overcast
12:52 PM 72.0 °F 66.0 °F 81% 29.95 in 10.0 mi WSW 6.9 mph - N/A   Overcast
1:52 PM 75.9 °F 66.9 °F 74% 29.93 in 10.0 mi WSW 12.7 mph - N/A   Mostly Cloudy
2:19 PM 78.8 °F 68.0 °F 69% 29.92 in 10.0 mi SW 10.4 mph - N/A   Scattered Clouds
2:52 PM 78.1 °F 66.9 °F 68% 29.88 in 10.0 mi SW 11.5 mph - N/A   Scattered Clouds
3:22 PM 68.0 °F 62.6 °F 83% 29.92 in 1.8 mi NNW 8.1 mph 32.2 mph 0.00 in Rain Heavy Rain
3:30 PM 66.2 °F 64.4 °F 94% 29.92 in 1.2 mi North 4.6 mph - 0.18 in Rain Heavy Rain
3:33 PM 66.2 °F 64.4 °F 94% 29.92 in 2.5 mi Calm Calm - 0.18 in Rain Light Rain
3:40 PM 69.8 °F 64.4 °F 83% 29.92 in 5.0 mi Calm Calm - 0.18 in   Mostly Cloudy
3:52 PM 72.0 °F 66.9 °F 84% 29.90 in 10.0 mi Calm Calm - 0.18 in   Partly Cloudy
4:52 PM 78.1 °F 61.0 °F 56% 29.91 in 10.0 mi WNW 12.7 mph - N/A   Scattered Clouds
5:52 PM 77.0 °F 55.0 °F 47% 29.93 in 10.0 mi NW 18.4 mph 25.3 mph N/A   Clear
6:52 PM 73.9 °F 55.9 °F 53% 29.94 in 10.0 mi NW 17.3 mph 25.3 mph N/A   Clear
7:52 PM 70.0 °F 55.0 °F 59% 29.96 in 10.0 mi NW 19.6 mph 25.3 mph N/A   Clear
8:52 PM 66.0 °F 55.9 °F 70% 29.96 in 10.0 mi WNW 5.8 mph - N/A   Clear
9:52 PM 63.0 °F 55.9 °F 78% 29.97 in 10.0 mi West 4.6 mph - N/A   Clear
10:52 PM 64.9 °F 55.9 °F 73% 29.96 in 10.0 mi WNW 8.1 mph - N/A   Clear
11:52 PM 61.0 °F 55.9 °F 83% 29.96 in 10.0 mi West 6.9 mph - N/A   Clear